1389484830305,1.06297
1389484890305,1.07188
1389484950305,1.08612
1389485010305,1.10508
1389485070305,1.11773
1389485130305,1.13371
1389485190305,1.14717
1389485250305,1.16623
1389485310305,1.15436
1389485370305,1.14141
1389485430305,1.12259
1389485490305,1.10480
1389485550305,1.10190
1389485610305,1.09039
1389485670305,1.08104
1389485730305,1.07195
1389485790305,1.07083
1389485850305,1.06182
1389485910305,1.06071
1389485970305,1.06571
1389486030305,1.06852
1389486090305,1.06175
1389486150305,1.05461
1389486210305,1.04984
1389486270305,1.05286
1389486330305,1.05133
1389486390305,1.04847
1389486450305,1.05023
1389486510305,1.05886
1389486570305,1.03352
1389486630305,1.04678
1389486690305,1.03353
1389486750305,1.03390
1389486810305,1.04614
1389486870305,1.04139
1389486930305,1.03277
1389486990305,1.04250
1389487050305,1.02409
1389487110305,1.03824
1389487170305,1.03684
1389487230305,1.03629
1389487290305,1.04326
1389487350305,1.03613
1389487410305,1.04154
1389487470305,1.03834
1389487530305,1.04414
1389487590305,1.03685
1389487650305,1.03526
1389487710305,1.03431
1389487770305,1.03904
1389487830305,1.03683
1389487890305,1.03435
1389487950305,1.03870
1389488010305,1.03455
1389488070305,1.02941
1389488130305,1.04084
1389488190305,1.04663
1389488250305,1.03459
1389488310305,1.04299
1389488370305,1.04601
1389488430315,1.04301
1389488490315,1.04635
1389488550315,1.03155
1389488610315,1.03733
1389488670315,1.02878
1389488730315,1.03425
1389488790315,1.04283
1389488850315,1.03045
1389488910315,1.03896
1389488970315,1.04216
1389489030315,1.04285
1389489090315,1.04406
1389489150315,1.04580
1389489210315,1.04052
1389489270315,1.04687
1389489330315,1.04222
1389489390315,1.04347
1389489450315,1.04795
1389489510315,1.05309
1389489570315,1.05024
1389489630315,1.05396
1389489690315,1.04411
1389489750315,1.03834
1389489810315,1.03862
1389489870315,1.04517
1389489930315,1.03889
1389489990315,1.04444
1389490050315,1.03868
1389490110315,1.04484
1389490170315,1.03225
1389490230315,1.03399
1389490290315,1.03904
1389490350315,1.03447
1389490410315,1.04174
1389490470315,1.03377
1389490530315,1.04061
1389490590315,1.04455
1389490650315,1.04473
1389490710315,1.03822
1389490770315,1.03476
1389490830315,1.04083
1389490890315,1.04356
1389490950315,1.04055
1389491010315,1.03977
1389491070315,1.04155
1389491130315,1.04139
1389491190315,1.03630
1389491250315,1.02689
1389491310315,1.02814
1389491370315,1.03575
1389491430315,1.03802
1389491490315,1.03735
1389491550315,1.03986
1389491610315,1.04374
1389491670315,1.05100
1389491730315,1.04232
1389491790315,1.05173
1389491850315,1.05062
1389491910315,1.03622
1389491970315,1.04425
1389492030325,1.05109
1389492090325,1.06506
1389492150325,1.07445
1389492210325,1.07541
1389492270325,1.08469
1389492330325,1.09134
1389492390325,1.10188
1389492450325,1.11371
1389492510325,1.12498
1389492570325,1.13292
1389492630325,1.14250
1389492690325,1.12730
1389492750325,1.12530
1389492810325,1.12185
1389492870325,1.11358
1389492930325,1.11266
1389492990325,1.11162
1389493050325,1.11506
1389493110325,1.10306
1389493170325,1.10518
1389493230325,1.09840
1389493290325,1.10812
1389493350325,1.10591
1389493410325,1.10796
1389493470325,1.09968
1389493530325,1.09360
1389493590325,1.10226
1389493650325,1.11198
1389493710325,1.10430
1389493770325,1.11495
1389493830325,1.10443
1389493890325,1.10066
1389493950325,1.10927
1389494010325,1.10674
1389494070325,1.10575
1389494130325,1.10021
1389494190325,1.09281
1389494250325,1.09464
1389494310325,1.09218
1389494370325,1.09998
1389494430325,1.09607
1389494490325,1.09834
1389494550325,1.09008
1389494610325,1.08743
1389494670325,1.09081
1389494730325,1.07955
1389494790325,1.09251
1389494850325,1.10150
1389494910325,1.08945
1389494970325,1.08667
1389495030325,1.09148
1389495090325,1.09240
1389495150325,1.09496
1389495210325,1.10264
1389495270325,1.10387
1389495330325,1.09893
1389495390325,1.09932
1389495450325,1.10197
1389495510325,1.10316
1389495570325,1.10505
1389495630335,1.09861
1389495690335,1.10716
1389495750335,1.10192
1389495810335,1.11337
1389495870335,1.12278
1389495930335,1.11382
1389495990335,1.11388
1389496050335,1.10299
1389496110335,1.11035
1389496170335,1.10541
1389496230335,1.11530
1389496290335,1.11314
1389496350335,1.11274
1389496410335,1.10258
1389496470335,1.10183
1389496530335,1.11390
1389496590335,1.10032
1389496650335,1.10889
1389496710335,1.09867
1389496770335,1.09852
1389496830335,1.09458
1389496890335,1.09443
1389496950335,1.09181
1389497010335,1.09130
1389497070335,1.08202
1389497130335,1.08801
1389497190335,1.08139
1389497250335,1.08781
1389497310335,1.08090
1389497370335,1.08981
1389497430335,1.08137
1389497490335,1.08342
1389497550335,1.07918
1389497610335,1.07642
1389497670335,1.06742
1389497730335,1.06923
1389497790335,1.06524
1389497850335,1.06998
1389497910335,1.06759
1389497970335,1.05629
1389498030335,1.06690
1389498090335,1.07026
1389498150335,1.06895
1389498210335,1.06484
1389498270335,1.05428
1389498330335,1.05674
1389498390335,1.05670
1389498450335,1.05397
1389498510335,1.06310
1389498570335,1.06937
1389498630335,1.06138
1389498690335,1.05329
1389498750335,1.05312
1389498810335,1.05145
1389498870335,1.05478
1389498930335,1.05282
1389498990335,1.05562
1389499050335,1.04796
1389499110335,1.04718
1389499170335,1.03936
1389499230345,1.04604
1389499290345,1.04044
1389499350345,1.04835
1389499410345,1.03864
1389499470345,1.04022
1389499530345,1.03574
1389499590345,1.03441
1389499650345,1.04338
1389499710345,1.03922
1389499770345,1.04048
1389499830345,1.04209
1389499890345,1.02522
1389499950345,1.02750
1389500010345,1.03823
1389500070345,1.03688
1389500130345,1.04033
1389500190345,1.03342
1389500250345,1.03563
1389500310345,1.02406
1389500370345,1.02739
1389500430345,1.03029
1389500490345,1.03488
1389500550345,1.03881
1389500610345,1.03131
1389500670345,1.02254
1389500730345,1.02387
1389500790345,1.03473
1389500850345,1.02943
1389500910345,1.03445
1389500970345,1.02313
1389501030345,1.03287
1389501090345,1.03489
1389501150345,1.03241
1389501210345,1.03310
1389501270345,1.02937
1389501330345,1.03546
1389501390345,1.02632
1389501450345,1.04037
1389501510345,1.03612
1389501570345,1.04336
1389501630345,1.04346
1389501690345,1.04712
1389501750345,1.03701
1389501810345,1.04167
1389501870345,1.04478
1389501930345,1.05081
1389501990345,1.05303
1389502050345,1.04970
1389502110345,1.04286
1389502170345,1.03502
1389502230345,1.04093
1389502290345,1.04047
1389502350345,1.04013
1389502410345,1.03832
1389502470345,1.03717
1389502530345,1.03429
1389502590345,1.03845
1389502650345,1.03930
1389502710345,1.02966
1389502770345,1.02978
1389502830355,1.03221
1389502890355,1.04190
1389502950355,1.03350
1389503010355,1.04095
1389503070355,1.04094
1389503130355,1.03606
1389503190355,1.04440
1389503250355,1.04273
1389503310355,1.04038
1389503370355,1.04212
1389503430355,1.03963
1389503490355,1.04050
1389503550355,1.03517
1389503610355,1.02854
1389503670355,1.03144
1389503730355,1.02791
1389503790355,1.03767
1389503850355,1.03557
1389503910355,1.03518
1389503970355,1.02782
1389504030355,1.02652
1389504090355,1.02258
1389504150355,1.03387
1389504210355,1.02731
1389504270355,1.03274
1389504330355,1.03512
1389504390355,1.02366
1389504450355,1.02755
1389504510355,1.02443
1389504570355,1.01937
1389504630355,1.03360
1389504690355,1.02834
1389504750355,1.03066
1389504810355,1.03557
1389504870355,1.03335
1389504930355,1.03092
1389504990355,1.03157
1389505050355,1.03852
1389505110355,1.03270
1389505170355,1.03367
1389505230355,1.02900
1389505290355,1.02739
1389505350355,1.03274
1389505410355,1.02983
1389505470355,1.02842
1389505530355,1.02807
1389505590355,1.03079
1389505650355,1.02671
1389505710355,1.03136
1389505770355,1.03928
1389505830355,1.02649
1389505890355,1.02573
1389505950355,1.02946
1389506010355,1.02925
1389506070355,1.02378
1389506130355,1.02234
1389506190355,1.02125
1389506250355,1.02399
1389506310355,1.02443
1389506370355,1.02763
1389506430366,1.01745
1389506490366,1.01569
1389506550366,1.02484
1389506610366,1.02504
1389506670366,1.02777
1389506730366,1.02483
1389506790366,1.02455
1389506850366,1.02800
1389506910366,1.01901
1389506970366,1.02443
1389507030366,1.01811
1389507090366,1.02632
1389507150366,1.01953
1389507210366,1.02587
1389507270366,1.03144
1389507330366,1.03089
1389507390366,1.02684
1389507450366,1.02859
1389507510366,1.02844
1389507570366,1.02878
1389507630366,1.02883
1389507690366,1.02861
1389507750366,1.03100
1389507810366,1.02466
1389507870366,1.02980
1389507930366,1.03527
1389507990366,1.02734
1389508050366,1.03227
1389508110366,1.01895
1389508170366,1.02584
1389508230366,1.03638
1389508290366,1.03285
1389508350366,1.03240
1389508410366,1.02730
1389508470366,1.02917
1389508530366,1.03443
1389508590366,1.02994
1389508650366,1.02830
1389508710366,1.02880
1389508770366,1.03112
1389508830366,1.02894
1389508890366,1.02943
1389508950366,1.02762
1389509010366,1.02292
1389509070366,1.02844
1389509130366,1.02457
1389509190366,1.03100
1389509250366,1.02595
1389509310366,1.04044
1389509370366,1.02386
1389509430366,1.04472
1389509490366,1.03441
1389509550366,1.03649
1389509610366,1.03340
1389509670366,1.03482
1389509730366,1.02742
1389509790366,1.02594
1389509850366,1.02932
1389509910366,1.02996
1389509970366,1.02391
1389510030377,1.01927
1389510090377,1.02814
1389510150377,1.02000
1389510210377,1.01698
1389510270377,1.02145
1389510330377,1.01973
1389510390377,1.02219
1389510450377,1.02553
1389510510377,1.02839
1389510570377,1.02326
1389510630377,1.02091
1389510690377,1.02240
1389510750377,1.01494
1389510810377,1.01529
1389510870377,1.01572
1389510930377,1.01582
1389510990377,1.01506
1389511050377,1.02163
1389511110377,1.02072
1389511170377,1.02005
1389511230377,1.02632
1389511290377,1.02185
1389511350377,1.01560
1389511410377,1.01971
1389511470377,1.02117
1389511530377,1.02033
1389511590377,1.01756
1389511650377,1.02539
1389511710377,1.02760
1389511770377,1.01326
1389511830377,1.01997
1389511890377,1.02683
1389511950377,1.02262
1389512010377,1.02080
1389512070377,1.02404
1389512130377,1.01658
1389512190377,1.03241
1389512250377,1.02998
1389512310377,1.02339
1389512370377,1.02660
1389512430377,1.02015
1389512490377,1.02617
1389512550377,1.02577
1389512610377,1.02388
1389512670377,1.03154
1389512730377,1.02473
1389512790377,1.02626
1389512850377,1.03462
1389512910377,1.02643
1389512970377,1.02854
1389513030377,1.01493
1389513090377,1.01811
1389513150377,1.02218
1389513210377,1.01712
1389513270377,1.02340
1389513330377,1.02452
1389513390377,1.01650
1389513450377,1.02021
1389513510377,1.02734
1389513570377,1.02655
1389513630388,1.01223
1389513690388,1.02880
1389513750388,1.02721
1389513810388,1.01999
1389513870388,1.02653
1389513930388,1.02703
1389513990388,1.02675
1389514050388,1.02895
1389514110388,1.03511
1389514170388,1.02541
1389514230388,1.03087
1389514290388,1.02856
1389514350388,1.03796
1389514410388,1.03130
1389514470388,1.03911
1389514530388,1.03482
1389514590388,1.03910
1389514650388,1.04286
1389514710388,1.03972
1389514770388,1.04530
1389514830388,1.03456
1389514890388,1.03958
1389514950388,1.03067
1389515010388,1.03639
1389515070388,1.02298
1389515130388,1.02921
1389515190388,1.02977
1389515250388,1.02790
1389515310388,1.03189
1389515370388,1.02405
1389515430388,1.02364
1389515490388,1.02201
1389515550388,1.02162
1389515610388,1.02741
1389515670388,1.02127
1389515730388,1.02605
1389515790388,1.02349
1389515850388,1.02565
1389515910388,1.02268
1389515970388,1.02792
1389516030388,1.02755
1389516090388,1.03658
1389516150388,1.03186
1389516210388,1.02367
1389516270388,1.03635
1389516330388,1.04039
1389516390388,1.02517
1389516450388,1.03633
1389516510388,1.03419
1389516570388,1.03143
1389516630388,1.03399
1389516690388,1.02757
1389516750388,1.03348
1389516810388,1.02308
1389516870388,1.02146
1389516930388,1.02099
1389516990388,1.01834
1389517050388,1.02425
1389517110388,1.02477
1389517170388,1.02284
1389517230399,1.02557
1389517290399,1.01779
1389517350399,1.01657
1389517410399,1.02031
1389517470399,1.01925
1389517530399,1.01783
1389517590399,1.01287
1389517650399,1.02082
1389517710399,1.01781
1389517770399,1.02236
1389517830399,1.01812
1389517890399,1.01447
1389517950399,1.01053
1389518010399,1.01734
1389518070399,1.02031
1389518130399,1.01059
1389518190399,1.01805
1389518250399,1.02250
1389518310399,1.01848
1389518370399,1.02070
1389518430399,1.01975
1389518490399,1.01715
1389518550399,1.02337
1389518610399,1.01485
1389518670399,1.02115
1389518730399,1.02601
1389518790399,1.02464
1389518850399,1.02402
1389518910399,1.01443
1389518970399,1.02273
1389519030399,1.01623
1389519090399,1.02258
1389519150399,1.01563
1389519210399,1.01340
1389519270399,1.01484
1389519330399,1.01636
1389519390399,1.02333
1389519450399,1.01593
1389519510399,1.01998
1389519570399,1.01881
1389519630399,1.02255
1389519690399,1.02278
1389519750399,1.02352
1389519810399,1.01392
1389519870399,1.02263
1389519930399,1.02438
1389519990399,1.02014
1389520050399,1.02261
1389520110399,1.01098
1389520170399,1.02677
1389520230399,1.01460
1389520290399,1.02258
1389520350399,1.02023
1389520410399,1.01851
1389520470399,1.01244
1389520530399,1.02211
1389520590399,1.01339
1389520650399,1.02089
1389520710399,1.01299
1389520770399,1.01698
1389520830410,1.02351
1389520890410,1.02292
1389520950410,1.02011
1389521010410,1.01346
1389521070410,1.01246
1389521130410,1.01719
1389521190410,1.01912
1389521250410,1.01096
1389521310410,1.01624
1389521370410,1.01333
1389521430410,1.02053
1389521490410,1.01399
1389521550410,1.01326
1389521610410,1.00947
1389521670410,1.01485
1389521730410,1.01378
1389521790410,1.01488
1389521850410,1.01213
1389521910410,1.00953
1389521970410,1.01139
1389522030410,1.01479
1389522090410,1.01758
1389522150410,1.01231
1389522210410,1.01080
1389522270410,1.00740
1389522330410,1.01333
1389522390410,1.00959
1389522450410,1.01274
1389522510410,1.00958
1389522570410,1.02088
1389522630410,1.01081
1389522690410,1.01979
1389522750410,1.01077
1389522810410,1.01535
1389522870410,1.01048
1389522930410,1.01143
1389522990410,1.01489
1389523050410,1.01004
1389523110410,1.01388
1389523170410,1.00900
1389523230410,1.01966
1389523290410,1.01220
1389523350410,1.00460
1389523410410,1.00647
1389523470410,1.00545
1389523530410,1.01235
1389523590410,1.01588
1389523650410,1.01918
1389523710410,1.01686
1389523770410,1.00731
1389523830410,1.01541
1389523890410,1.01858
1389523950410,1.00443
1389524010410,1.01687
1389524070410,1.00601
1389524130410,1.00745
1389524190410,1.01752
1389524250410,1.01031
1389524310410,1.01267
1389524370410,1.00899
1389524430421,1.00684
1389524490421,1.00909
1389524550421,1.01119
1389524610421,1.01028
1389524670421,1.01105
1389524730421,1.00949
1389524790421,1.00543
1389524850421,1.00568
1389524910421,1.01047
1389524970421,1.01355
1389525030421,1.01343
1389525090421,1.00609
1389525150421,1.00956
1389525210421,1.00863
1389525270421,1.00789
1389525330421,1.01321
1389525390421,1.01422
1389525450421,1.01229
1389525510421,1.01420
1389525570421,1.01717
1389525630421,1.01082
1389525690421,1.01236
1389525750421,1.00414
1389525810421,1.01138
1389525870421,1.00942
1389525930421,1.00670
1389525990421,1.01397
1389526050421,1.01190
1389526110421,1.00997
1389526170421,1.01498
1389526230421,1.02285
1389526290421,1.01536
1389526350421,1.01264
1389526410421,1.01598
1389526470421,1.00941
1389526530421,1.01665
1389526590421,1.00958
1389526650421,1.01600
1389526710421,1.01520
1389526770421,1.00921
1389526830421,1.01303
1389526890421,1.01112
1389526950421,1.01247
1389527010421,1.01374
1389527070421,1.01322
1389527130421,1.01741
1389527190421,1.00991
1389527250421,1.01528
1389527310421,1.02163
1389527370421,1.00882
1389527430421,1.01254
1389527490421,1.01392
1389527550421,1.00952
1389527610421,1.02330
1389527670421,1.01381
1389527730421,1.00930
1389527790421,1.01749
1389527850421,1.01801
1389527910421,1.01633
1389527970421,1.02425
1389531626094,1.01618
1389531690443,1.02075
1389531750443,1.02851
1389531810443,1.02564
1389531870443,1.01975
1389531930443,1.02517
1389531990443,1.01912
1389532050443,1.02540
1389532110443,1.01957
1389532170443,1.02295
1389532230443,1.02282
1389532290443,1.02301
1389532350443,1.01625
1389532410443,1.02348
1389532470443,1.03077
1389532530443,1.01520
1389532590443,1.02043
1389532650443,1.02529
1389532710443,1.03386
1389532770443,1.03144
1389532830443,1.03339
1389532890443,1.04057
1389532950443,1.03616
1389533010443,1.04212
1389534150443,1.02473
1389534210443,1.02596
1389534270443,1.01268
1389534330443,1.02662
1389534390443,1.02986
1389534450443,1.03409
1389534510443,1.03180
1389534570443,1.03192
1389534630443,1.02686
1389534690443,1.02286
1389534750443,1.02719
1389534810443,1.01089
1389534870443,1.02396
1389534930443,1.02531
1389534990443,1.01495
1389535050443,1.02544
1389535110443,1.02645
1389535170443,1.02453
1389535230455,1.02570
1389535290455,1.02756
1389535350455,1.02530
1389535410454,1.03063
1389535470454,1.02985
1389535530454,1.02036
1389535590454,1.02159
1389535650454,1.02424
1389535710454,1.02113
1389535770454,1.02487
1389535830454,1.01970
1389535890454,1.02490
1389535950454,1.02177
1389536010454,1.02300
1389536070454,1.02104
1389536130454,1.02236
1389536190454,1.02154
1389536250454,1.01867
1389536310454,1.01986
1389536370454,1.01607
1389536430454,1.01708
1389536490454,1.02142
1389536550455,1.02767
1389536610455,1.02538
1389536670455,1.02008
1389536730454,1.02019
1389536790454,1.02069
1389536850454,1.02198
1389536910454,1.02250
1389536970454,1.01851
1389537030454,1.01770
1389537090454,1.03082
1389537150454,1.01915
1389537210454,1.01872
1389537270454,1.02724
1389537330454,1.02692
1389537390454,1.02113
1389537450454,1.01805
1389537510454,1.01186
1389537570454,1.01107
1389537630454,1.01722
1389537690454,1.01685
1389537750454,1.01380
1389537810454,1.01542
1389537870454,1.01387
1389537930455,1.01498
1389537990455,1.01894
1389538050455,1.02442
1389538110454,1.01709
1389538170454,1.02427
1389538230454,1.02412
1389538290454,1.02036
1389538350454,1.02114
1389538410454,1.03261
1389538470454,1.02503
1389538530454,1.03044
1389538590454,1.02183
1389538650454,1.02174
1389538710454,1.02395
1389538770454,1.02292
1389538830466,1.02479
1389538890466,1.02524
1389538950466,1.02273
1389539010466,1.02286
1389539070466,1.02452
1389539130466,1.02058
1389539190466,1.02744
1389539250466,1.01849
1389539310466,1.02395
1389539370466,1.02596
1389539430466,1.02238
1389539490466,1.02146
1389539550466,1.01506
1389539610466,1.01900
1389539670466,1.02126
1389539730466,1.04007
1389539790466,1.03063
1389539850466,1.01756
1389539910466,1.02458
1389539970466,1.01552
1389540030466,1.01787
1389540090466,1.01721
1389540150466,1.01748
1389540210466,1.01675
1389540270466,1.01309
1389540330466,1.01758
1389540390466,1.01407
1389540450466,1.01452
1389540510466,1.01499
1389540570466,1.01940
1389540630466,1.01725
1389540690466,1.00731
1389540750466,1.01192
1389540810466,1.00401
1389540870466,1.01048
1389540930466,1.01117
1389540990466,1.00973
1389541050466,1.00749
1389541110466,1.01146
1389541170466,1.01698
1389541230466,1.01404
1389541290466,1.01393
1389541350466,1.01028
1389541410466,1.00894
1389541470466,1.01379
1389541530466,1.00563
1389541590466,1.01073
1389541650466,1.00310
1389541710466,1.00811
1389541770466,1.01263
1389541830466,1.01069
1389541890466,1.00835
1389541950466,1.01422
1389542010466,1.01038
1389542070466,1.00310
1389542130466,1.01119
1389542190466,1.02157
1389542250466,1.00796
1389542310466,1.00938
1389542370466,1.00781
1389542430477,1.01236
1389542490477,1.00426
1389542550477,1.01174
1389542610477,1.00224
1389542670477,1.00453
1389542730477,1.01077
1389542790477,1.00824
1389542850477,1.00981
1389542910477,1.01860
1389542970477,1.00516
1389543030477,1.01523
1389543090477,1.02302
1389543150477,1.01072
1389543210477,1.01422
1389543270477,1.01000
1389543330477,1.00361
1389543390477,1.01326
1389543450477,1.01271
1389543510477,1.01137
1389543570477,1.01720
1389543630477,1.01337
1389543690477,1.01263
1389543750477,1.01300
1389543810477,1.01939
1389543870477,1.01955
1389543930477,1.01290
1389543990477,1.01162
1389544050477,1.01421
1389544110477,1.00718
1389544170477,1.00462
1389544230477,1.00901
1389544290477,1.00463
1389544350477,1.00974
1389544410477,1.00673
1389544470477,1.01110
1389544530477,1.00894
1389544590477,1.00961
1389544650477,1.01256
1389544710477,1.01187
1389544770477,1.00013
1389544830477,1.00461
1389544890477,1.00991
1389544950477,1.00742
1389545010477,1.00180
1389545070477,1.00169
1389545130477,1.01361
1389545190477,1.00876
1389545250477,1.01415
1389545310477,1.01144
1389545370477,1.01243
1389545430477,1.00843
1389545490477,1.01208
1389545550477,1.01207
1389545610477,1.01397
1389545670477,1.01154
1389545730477,1.00851
1389545790477,1.00942
1389545850477,1.01112
1389545910477,1.00515
1389545970477,1.00513
1389546030488,1.01178
1389546090488,1.00995
1389546150488,1.01084
1389546210488,1.01513
1389546270488,1.01530
1389546330488,1.00815
1389546390488,1.01423
1389546450488,1.01349
1389546510488,1.00793
1389546570488,1.00654
1389546630488,1.01115
1389546690488,1.00825
1389546750488,1.00868
1389546810488,1.00268
1389546870488,1.00821
1389546930488,1.00505
1389546990488,1.00729
1389547050488,1.00778
1389547110488,1.01086
1389547170488,1.01439
1389547230488,1.00720
1389547290488,1.00499
1389547350488,1.01933
1389547410488,1.02326
1389547470488,1.00764
1389547530488,1.01215
1389547590488,1.01965
1389547650488,1.01117
1389547710488,1.01388
1389547770488,1.00634
1389547830488,1.00592
1389547890488,1.01561
1389547950488,1.01450
1389548010488,1.01464
1389548070488,1.01361
1389548130488,1.00958
1389548190488,1.00256
1389548250488,1.00911
1389548310488,1.00741
1389548370488,1.00253
1389548430488,1.00132
1389548490488,1.00763
1389548550488,1.00527
1389548610488,1.00363
1389548670488,1.00328
1389548730488,1.00484
1389548790488,1.01016
1389548850488,0.999979
1389548910488,1.00627
1389548970488,1.00051
1389549030488,0.997947
1389549090488,1.00336
1389549150488,1.00415
1389549210488,1.00847
1389549270488,1.00891
1389549330488,1.00484
1389549390488,0.996338
1389549450488,1.00752
1389549510488,1.01171
1389549570488,1.00464
1389549630498,1.01675
1389549690498,1.01485
1389549750498,1.01025
1389549810498,1.01883
1389549870498,1.01297
1389549930498,1.00133
1389549990498,1.00875
1389550050498,1.00509
1389550110498,1.00535
1389550170498,1.01157
1389550230498,1.00966
1389550290498,1.01054
1389550350498,1.00992
1389550410498,1.00783
1389550470498,1.00547
1389550530498,1.00406
1389550590498,1.00184
1389550650498,1.01022
1389550710498,1.01238
1389550770498,1.01528
1389550830498,1.00602
1389550890498,1.01781
1389550950498,1.01410
1389551010498,1.01247
1389551070498,1.01284
1389551130498,1.01903
1389551190498,1.02093
1389551250498,1.00990
1389551310498,1.00997
1389551370498,1.00820
1389551430498,1.00941
1389551490498,1.01328
1389551550498,1.00652
1389551610498,1.00248
1389551670498,1.00875
1389551730498,1.01259
1389551790498,1.00412
1389551850498,1.01388
1389551910498,1.00494
1389551970498,1.00284
1389552030498,1.00381
1389552090498,1.00105
1389552150498,1.00260
1389552210498,1.00194
1389552270498,1.00572
1389552330498,1.00343
1389552390498,1.00140
1389552450498,1.00680
1389552510498,0.996591
1389552570498,0.998109
1389552630498,1.00815
1389552690498,0.997797
1389552750498,1.00163
1389552810498,1.00602
1389552870498,1.00626
1389552930498,1.01153
1389552990498,1.02092
1389553050498,1.01251
1389553110498,1.00576
1389553170498,0.997543
1389553230509,1.01378
1389553290509,0.999631
1389553350509,1.00198
1389553410509,0.997853
1389553470509,1.00435
1389553530509,1.00353
1389553590509,1.00499
1389553650509,1.00679
1389553710509,1.00348
1389553770509,1.00342
1389553830509,1.00908
1389553890509,1.02013
1389553950509,1.00893
1389554010509,1.00646
1389554070509,1.00859
1389554130509,1.00107
1389554190509,1.01303
1389554250509,1.00251
1389554310509,1.01235
1389554370509,1.00383
1389554430509,1.00587
1389554490509,1.00118
1389554550509,1.00018
1389554610509,1.00310
1389554670509,0.992890
1389554730509,1.00103
1389554790509,1.00504
1389554850509,1.00179